Flag for Canada Weather past 2 weeks in Colchester County, Nova Scotia, Canada

48 °F

Mostly cloudy.

Feels Like: 44 °F
Forecast: 30 / 46 °F
Wind: 9 mph from West

Location: Halifax International Airport

Current Time: Nov 28, 2015 at 5:37:12 AM

Latest Report: Nov 28, 2015 at 5:00 AM

Visibility: 15 mi

Pressure: 30.03 "Hg

Humidity: 94%

Dew point: 46 °F

Location of Colchester CountyLocation

Historic Weather in Colchester County — Graph


Colchester County temperature yesterday

Maximum temperature yesterday: 55 °F (at 12:00 PM)
Minimum temperature yesterday: 41 °F (at 12:00 AM)
Average temperature yesterday: 48 °F

Past Weeks' High & Low Weather Summary

High59 °F (Nov 23, 1:00 AM)100% (Nov 13, 4:00 AM)30.99 "Hg (Nov 13, 4:00 AM)
Low21 °F (Nov 25, 7:00 AM)51% (Nov 25, 3:00 PM)29.26 "Hg (Nov 13, 2:00 PM)
Average40 °F86%30.15 "Hg
* Reported Nov 13 4:00 AM — Nov 28 4:00 AM, Colchester County, Weather by CustomWeather, © 2015

Note: Actual official high and low records may vary slightly from our data, if they occured in-between our weather recording intervals... More about our weather records


Colchester County weather history for previous 24 hours

Time TempWeatherWind HumidityBarometerVisibility
4:00 AM
Sat, Nov 28
48 °FOvercast.12 mph94%30.04 "Hg15 mi
3:00 AM48 °FPassing clouds.12 mph94%30.05 "Hg15 mi
2:00 AM48 °FPassing clouds.13 mph94%30.06 "Hg15 mi
1:00 AM48 °FMostly cloudy.13 mph94%30.08 "Hg15 mi
12:00 AM48 °FPassing clouds.17 mph94%30.08 "Hg15 mi
11:00 PM
Fri, Nov 27
48 °FPassing clouds.14 mph94%30.12 "Hg15 mi
10:00 PM48 °FPassing clouds.16 mph87%30.16 "Hg15 mi
9:00 PM48 °FPassing clouds.17 mph87%30.18 "Hg15 mi
8:00 PM50 °FPassing clouds.17 mph82%30.20 "Hg15 mi
7:00 PM48 °FPassing clouds.15 mph87%30.23 "Hg15 mi
6:00 PM48 °FPassing clouds.17 mph87%30.25 "Hg15 mi
5:00 PM48 °FPassing clouds.14 mph87%30.25 "Hg15 mi
4:00 PM52 °FOvercast.13 mph77%30.28 "Hg15 mi
3:00 PM54 °FPartly sunny.16 mph67%30.31 "Hg15 mi
2:00 PM55 °FPartly sunny.21 mph63%30.32 "Hg15 mi
1:00 PM55 °FScattered clouds.21 mph63%30.37 "Hg15 mi
12:00 PM55 °FPassing clouds.21 mph63%30.41 "Hg15 mi
11:00 AM54 °FPassing clouds.22 mph72%30.47 "Hg15 mi
10:00 AM50 °FScattered clouds.17 mph88%30.51 "Hg15 mi
9:00 AM48 °FScattered clouds.16 mph87%30.52 "Hg15 mi
8:00 AM46 °FPassing clouds.14 mph87%30.54 "Hg15 mi
7:00 AM45 °FPassing clouds.12 mph93%30.57 "Hg15 mi
6:00 AM45 °FPassing clouds.10 mph93%30.59 "Hg15 mi
5:00 AM45 °FPassing clouds.12 mph87%30.60 "Hg15 mi
Weather by CustomWeather, © 2015

See weather overviewHow to use our weather pages